Tracking 19562 objects as of 25-Mar-2019
HD Live streaming from Space Station
objects crossing your sky now

MICRO LABSAT

Track MICRO LABSAT now!
10-day predictions
MICRO LABSAT is classified as:


NORAD ID: 27600
Int'l Code: 2002-056D
Perigee: 791.8 km
Apogee: 808.5 km
Inclination: 98.5 °
Period: 100.7 minutes
Semi major axis: 7171 km
RCS: 0.4739 m2 (medium)
Launch date: December 14, 2002
Source: Japan (JPN)
Launch site: TANEGASHIMA SPACE CENTER (TNSTA)

Research and development of microsatellite technology.
aabbcc
Your satellite tracking list
Your tracking list is empty




NASA's NSSDC Master Catalog

Two Line Element Set (TLE):
1 27600U 02056D   19083.80770889 +.00000010 +00000-0 +20371-4 0  9994
2 27600 098.4813 033.1483 0011618 135.1510 225.0614 14.29622898849029
Source of the keplerian elements: AFSPC